User: anonymous   Login
Location: Caltech
(34.1382°N, 118.1253°W)
Time: 14:36:46
(UTC-08:00)
Language:

PAYLOAD A - Orbit

View from above orbital plane
View from above orbital plane
View from above satellite
View from above satellite

Ground track
Ground track

The orbit data is extracted from the following two-line orbital elements,

1 27840U 03031A   15061.91964302  .00000147  00000-0  58311-4 0  9999
2 27840 098.2157 084.9033 0099475 122.6489 358.5505 14.38779798612911
Epoch (UTC): 02 March 2015 22:04:17
Eccentricity: 0.0099475
inclination: 98.2157°
perigee height: 691 km
apogee height: 833 km
right ascension of ascending node: 84.9033°
argument of perigee: 122.6489°
revolutions per day: 14.38779798
mean anomaly at epoch: 358.5505°
orbit number at epoch: 61291

The dashed part of the orbit path shows where the satellite is in the earth's shadow,  

DLR